[[{"header":{"parameterUnit":"m.s-1","parameterCategory":1,"la1":30.2992,"la2":30.254,"lo1":-89.0895,"lo2":-89.0443,"dy":0.0025,"dx":0.0025,"nx":19,"ny":19,"refTime":"2026-03-27T21:00:00:Z","depth":0,"parameterNumber":2,"parameterNumberName":"U-component_of_WINDS"},"data":[0,0,0,-5.4971,-5.4973,-5.5071,-5.5071,-5.5244,-5.5246,0,0,0,0,0,0,0,0,0,0,0,-5.4971,-5.4974,-5.497,-5.4974,-5.5071,-5.5071,-5.5243,-5.5246,0,0,0,0,0,0,0,0,0,0,0,-5.497,-5.4973,-5.4976,-5.4974,-5.5071,-5.5071,-5.5243,-5.5152,0,0,0,0,0,0,0,0,0,0,-5.5049,-5.5079,-5.4972,-5.4976,-5.4975,-5.5071,-5.5071,-5.5147,-5.5158,-5.522,0,-5.5284,0,-5.5268,-5.526,-5.5261,0,0,0,-5.4951,-5.507,-5.507,-5.4976,-5.4976,-5.5071,-5.5021,-5.5152,-5.5165,-5.5235,-5.5286,-5.5291,-5.5271,-5.5262,-5.5263,-5.5696,-5.5699,0,0,-5.4946,-5.5005,-5.5061,-5.5079,-5.5068,-5.5018,-5.5024,-5.5159,-5.5219,-5.5286,-5.5294,-5.5274,-5.5263,-5.5265,-5.5693,-5.5697,0,0,0,-5.4946,-5.5002,-5.4997,-5.5073,-5.5087,-5.5021,-5.5029,-5.5213,-5.5206,-5.5295,-5.5276,-5.5264,-5.5267,-5.569,-5.5695,-5.5904,0,0,0,-5.4941,-5.5002,-5.4996,-5.5033,-5.5086,-5.5152,-5.508,-5.5197,-5.521,-5.5275,-5.5264,-5.5269,-5.5687,-5.5693,-5.5891,-5.5994,0,0,0,-5.4955,-5.5003,-5.5027,-5.5036,-5.508,-5.5148,-5.5148,-5.5198,-5.5199,-5.5261,-5.527,-5.5684,-5.5691,-5.5879,-5.5974,-5.6125,0,0,0,-5.4986,-5.5212,-5.5032,-5.5276,-5.508,-5.5277,-5.5147,-5.529,-5.5369,-5.5265,-5.5687,-5.5694,-5.5875,-5.5962,-5.6113,-5.6263,-5.6331,0,0,-5.5304,-5.5253,-5.5391,-5.5232,-5.5477,-5.5257,-5.5531,-5.5547,-5.5499,-5.5633,-5.5643,-5.5895,-5.5973,-5.6122,-5.669,-5.6745,0,0,0,-5.5512,-5.5613,-5.5664,-5.5742,-5.5759,-5.5782,-5.5749,-5.5754,-5.5865,-5.558,-5.5988,-5.6032,-5.6118,-5.6187,-5.6233,-5.6303,-5.5729,-5.5728,-5.5727,-5.6048,-5.5973,-5.6197,-5.6135,-5.6212,-5.6175,-5.6229,-5.623,-5.6133,-5.6231,-5.6271,-5.6625,-5.6708,-5.6742,-5.6815,-5.6343,-5.6344,-5.6345,-5.6345,-5.6506,-5.6637,-5.6502,-5.6671,-5.6591,-5.6732,-5.6704,-5.6631,-5.675,-5.6589,-5.666,-5.6491,-5.6804,-5.6864,-5.636,-5.6358,-5.6356,-5.6354,-5.6353,-5.6849,-5.6899,-5.6901,-5.7004,-5.7091,-5.7019,-5.714,-5.7062,-5.699,-5.706,-5.7093,-5.709,-5.7077,-5.7081,-5.7083,-5.7084,-5.7085,-5.7086,-5.7087,-5.7205,-5.72,-5.7312,-5.7348,-5.7386,-5.7427,-5.7391,-5.7427,-5.7446,-5.738,-5.738,-5.7274,-5.6848,-5.6744,-5.7105,-5.7102,-5.71,-5.7098,-5.7096,-5.7699,-5.7574,-5.7747,-5.7786,-5.7821,-5.7912,-5.781,-5.789,-5.7907,-5.7969,-5.7847,-5.7545,-5.7487,-5.7449,-5.7362,-5.7862,-5.7862,-5.7862,-5.7862,-5.7989,-5.7951,-5.8109,-5.8176,-5.8232,-5.8157,-5.8354,-5.8328,-5.8281,-5.8287,-5.8203,-5.808,-5.8046,-5.8008,-5.7958,-5.7875,-5.8495,-5.8495,-5.8496,-5.8289,-5.8253,-5.8435,-5.8388,-5.8409,-5.8429,-5.861,-5.8692,-5.8613,-5.852,-5.829,-5.8264,-5.8064,-5.8003,-5.7907,-5.7832,-5.7679,0,0]},{"header":{"parameterUnit":"m.s-1","parameterCategory":1,"la1":30.2992,"la2":30.254,"lo1":-89.0895,"lo2":-89.0443,"dy":0.0025,"dx":0.0025,"nx":19,"ny":19,"refTime":"2026-03-27T21:00:00:Z","depth":0,"parameterNumber":3,"parameterNumberName":"V-component_of_WINDS"},"data":[0,0,0,-2.9054,-2.9055,-2.9117,-2.9117,-2.9198,-2.9199,0,0,0,0,0,0,0,0,0,0,0,-2.9039,-2.904,-2.9054,-2.9055,-2.9117,-2.9117,-2.9198,-2.9199,0,0,0,0,0,0,0,0,0,0,0,-2.9039,-2.9039,-2.904,-2.9056,-2.9117,-2.9117,-2.9197,-2.915,0,0,0,0,0,0,0,0,0,0,-2.9089,-2.908,-2.9039,-2.904,-2.9056,-2.9117,-2.9117,-2.9147,-2.9153,-2.9171,0,-2.9191,0,-2.9196,-2.9204,-2.9205,0,0,0,-2.9052,-2.9075,-2.9089,-2.904,-2.9057,-2.9117,-2.9088,-2.915,-2.9156,-2.9178,-2.9192,-2.9195,-2.9197,-2.9205,-2.9205,-2.9325,-2.9326,0,0,-2.9049,-2.9051,-2.9085,-2.9093,-2.9086,-2.9086,-2.909,-2.9154,-2.9168,-2.9192,-2.9196,-2.9199,-2.9205,-2.9206,-2.9324,-2.9325,0,0,0,-2.9041,-2.9049,-2.9061,-2.909,-2.9101,-2.9088,-2.9093,-2.9165,-2.9169,-2.9197,-2.92,-2.9206,-2.9207,-2.9324,-2.9325,-2.9361,0,0,0,-2.9039,-2.9045,-2.906,-2.9062,-2.91,-2.9134,-2.9103,-2.9165,-2.9172,-2.9199,-2.9206,-2.9208,-2.9323,-2.9324,-2.9358,-2.9377,0,0,0,-2.9034,-2.9044,-2.9054,-2.9062,-2.9089,-2.9133,-2.9141,-2.9166,-2.9173,-2.9205,-2.9208,-2.9322,-2.9324,-2.9356,-2.9374,-2.9408,0,0,0,-2.9028,-2.9086,-2.9055,-2.912,-2.9088,-2.9156,-2.914,-2.919,-2.9222,-2.9206,-2.9323,-2.9325,-2.9355,-2.9371,-2.9406,-2.9437,-2.9451,0,0,-2.9103,-2.9095,-2.9134,-2.9107,-2.9181,-2.9147,-2.9225,-2.9251,-2.9251,-2.93,-2.9303,-2.9359,-2.9373,-2.9408,-2.953,-2.9541,0,0,0,-2.9158,-2.9185,-2.9204,-2.9235,-2.9256,-2.9275,-2.9289,-2.9298,-2.9339,-2.9278,-2.9382,-2.939,-2.941,-2.9425,-2.9434,-2.945,-2.9332,-2.9332,-2.9332,-2.9266,-2.9264,-2.9325,-2.933,-2.9359,-2.9372,-2.9395,-2.9409,-2.9398,-2.9422,-2.9436,-2.9511,-2.9528,-2.9535,-2.9552,-2.9454,-2.9454,-2.9454,-2.9454,-2.9373,-2.9411,-2.9394,-2.9448,-2.9443,-2.9488,-2.9501,-2.9492,-2.9531,-2.95,-2.9518,-2.9483,-2.9547,-2.9562,-2.9457,-2.9456,-2.9456,-2.9456,-2.9456,-2.9443,-2.946,-2.9471,-2.9513,-2.9545,-2.9546,-2.9585,-2.958,-2.9575,-2.9593,-2.9605,-2.9605,-2.9602,-2.9599,-2.96,-2.96,-2.96,-2.96,-2.96,-2.951,-2.9521,-2.9555,-2.9581,-2.9599,-2.9621,-2.9633,-2.965,-2.9666,-2.9659,-2.9659,-2.9644,-2.9555,-2.9532,-2.9604,-2.9604,-2.9603,-2.9603,-2.9603,-2.9618,-2.9592,-2.9644,-2.9662,-2.9691,-2.9721,-2.9715,-2.9748,-2.9761,-2.9779,-2.976,-2.9696,-2.9688,-2.968,-2.9661,-2.9762,-2.9762,-2.9762,-2.9762,-2.9675,-2.9671,-2.9721,-2.9749,-2.9776,-2.9774,-2.983,-2.9839,-2.9844,-2.9851,-2.9836,-2.981,-2.9802,-2.9798,-2.9788,-2.977,-2.9897,-2.9897,-2.9897,-2.974,-2.9737,-2.9787,-2.9792,-2.9814,-2.9832,-2.9883,-2.9914,-2.9915,-2.9903,-2.9856,-2.985,-2.9808,-2.9795,-2.9781,-2.9766,-2.9732,0,0]}]]